EW8130 Weather Reports


time (UTC)temp
F
wind
direction
speed
knots
gust
knots
rain 1hr
in
rain 24hr
in
rain mn
in
humidity
%
barometer
mb
20260902070040 83 50 0.0 0.9 0.00 0.00 0.00 70 994.0
20260902064542 83 37 0.0 0.9 0.00 0.00 0.00 70 994.1
20260902063038 83 43 0.0 0.9 0.00 0.00 0.00 70 994.0
20260902061545 83 75 0.0 1.7 0.00 0.00 0.00 70 993.9
20260902060037 84 50 0.0 1.7 0.00 0.00 0.00 70 993.9
20260902054536 84 53 0.0 1.7 0.00 0.00 0.00 70 993.9
20260902053037 84 34 0.0 1.7 0.00 0.00 0.00 69 993.9
20260902051532 85 37 0.0 1.7 0.00 0.00 0.00 68 993.9
20260902050028 85 79 0.0 1.7 0.00 0.00 0.00 68 993.8
20260902044527 85 57 0.0 1.7 0.00 0.00 0.00 67 993.8
20260902043029 86 56 0.0 1.7 0.00 0.00 0.00 66 993.8
20260902041528 86 34 0.0 1.7 0.00 0.00 0.00 65 993.7
20260902040026 87 43 0.0 2.6 0.00 0.00 0.00 64 993.7
20260902034526 87 62 0.0 1.7 0.00 0.00 0.00 62 993.6
20260902033035 89 39 0.0 9.6 0.00 0.00 0.00 60 993.5
20260902031530 88 21 0.0 0.0 0.00 0.00 0.00 57 993.1
20260902030024 89 43 0.0 0.0 0.00 0.00 0.00 58 992.8
20260902024523 89 47 0.0 0.0 0.00 0.00 0.00 57 992.7
20260902023025 89 33 0.0 0.9 0.00 0.00 0.00 57 992.5
20260902021527 89 18 0.0 0.9 0.00 0.00 0.00 56 992.3
20260902020022 89 359 0.0 0.9 0.00 0.00 0.00 56 992.1
20260902014534 90 359 0.0 0.0 0.00 0.00 0.00 56 991.9
20260902013021 90 4 0.0 0.9 0.00 0.00 0.00 55 991.8
20260902011533 91 31 0.0 0.9 0.00 0.00 0.00 53 991.7
20260902010031 92 359 0.0 0.9 0.00 0.00 0.00 52 991.6
20260902004526 93 359 0.0 0.0 0.00 0.00 0.00 50 991.5
20260902003018 93 4 0.0 0.0 0.00 0.00 0.00 49 991.5
20260902001518 93 35 0.0 0.0 0.00 0.00 0.00 50 991.6
20260902000021 94 64 0.0 0.9 0.00 0.00 0.00 49 991.7
20260901234538 94 10 0.0 0.9 0.00 0.00 0.00 48 991.8
20260901233014 95 21 0.0 0.9 0.00 0.00 0.00 48 991.9
20260901231514 95 27 0.0 0.9 0.00 0.00 0.00 48 992.0
20260901230013 95 359 0.0 0.9 0.00 0.00 0.00 48 992.0
20260901224513 95 31 0.0 0.9 0.00 0.00 0.00 47 992.1
20260901223018 95 359 0.0 0.9 0.00 0.00 0.00 47 992.1
20260901221521 96 286 0.0 8.7 0.00 0.00 0.00 46 992.1
20260901220013 96 312 0.0 0.9 0.00 0.00 0.00 46 992.2
20260901214510 95 359 0.0 0.9 0.00 0.00 0.00 47 992.3
20260901213010 95 60 0.0 1.7 0.00 0.00 0.00 47 992.5
20260901211510 95 40 0.0 3.5 0.00 0.00 0.00 47 992.7
20260901210006 96 359 0.0 0.0 0.00 0.00 0.00 47 992.8
20260901204504 97 359 0.0 1.7 0.00 0.00 0.00 46 993.0
20260901203009 99 359 0.0 0.0 0.00 0.00 0.00 44 993.0
20260901201502 99 275 1.7 8.7 0.00 0.00 0.00 44 993.2
20260901200106 99 359 0.0 0.9 0.00 0.00 0.00 44 993.3
20260901200003 99 312 0.0 0.9 0.00 0.00 0.00 45 993.3
20260901194605 99 66 0.0 7.8 0.00 0.00 0.00 44 993.5
20260901193058 99 33 0.0 0.9 0.00 0.00 0.00 45 993.5
20260901191557 97 143 0.0 1.7 0.00 0.00 0.00 47 993.8
20260901190107 97 276 0.0 0.9 0.00 0.00 0.00 46 994.1
20260901184556 99 359 0.0 1.7 0.00 0.00 0.00 44 994.2
20260901183052 97 293 0.0 0.9 0.00 0.00 0.00 46 994.5
20260901181555 97 85 0.0 0.9 0.00 0.00 0.00 47 995.0
20260901180046 96 20 0.0 0.9 0.00 0.00 0.00 47 995.2
20260901174544 95 210 0.0 0.9 0.00 0.00 0.00 50 995.4
20260901173103 94 111 0.0 1.7 0.00 0.00 0.00 51 995.7
20260901171542 95 84 0.0 5.2 0.00 0.00 0.00 50 995.7
20260901170042 95 68 0.0 5.2 0.00 0.00 0.00 50 995.9
20260901164539 95 45 0.0 1.7 0.00 0.00 0.00 51 996.1
20260901163034 94 181 0.0 0.9 0.00 0.00 0.00 52 996.1
20260901161532 94 116 0.0 0.9 0.00 0.00 0.00 54 996.2
20260901160029 92 133 0.0 1.7 0.00 0.00 0.00 56 996.1
20260901154525 92 139 0.0 0.9 0.00 0.00 0.00 57 996.2
20260901153035 91 119 0.0 0.9 0.00 0.00 0.00 57 996.2
20260901151521 91 149 0.0 5.2 0.00 0.00 0.00 59 996.1
20260901150018 90 129 0.0 0.9 0.00 0.00 0.00 61 996.1
20260901144526 88 137 0.0 0.9 0.00 0.00 0.00 64 996.2
20260901143012 87 54 0.0 0.9 0.00 0.00 0.00 67 996.4
20260901141512 86 66 0.0 0.9 0.00 0.00 0.00 68 996.3
20260901140009 85 112 0.0 0.9 0.00 0.00 0.00 70 996.2
20260901134507 83 79 0.0 0.9 0.00 0.00 0.00 71 996.3
20260901133009 82 165 0.0 0.9 0.00 0.00 0.00 73 996.4
20260901131508 81 164 0.0 0.9 0.00 0.00 0.00 73 996.3
20260901130003 80 174 0.0 0.9 0.00 0.00 0.00 75 996.1
20260901124502 80 87 0.0 0.9 0.00 0.00 0.00 75 995.9
20260901123001 79 66 0.0 1.7 0.00 0.00 0.00 76 995.6
20260901121611 80 74 0.0 0.9 0.00 0.00 0.00 75 995.5
20260901120106 80 89 0.0 1.7 0.00 0.00 0.00 75 995.3
20260901114600 80 79 0.0 0.9 0.00 0.00 0.00 75 995.0
20260901113055 80 107 0.0 0.0 0.00 0.00 0.00 75 994.9
20260901111556 80 107 0.0 0.0 0.00 0.00 0.00 74 995.0
20260901110052 80 101 0.0 0.9 0.00 0.00 0.00 73 994.9
20260901104551 80 89 0.0 0.9 0.00 0.00 0.00 72 994.8
20260901103056 80 91 0.0 0.9 0.00 0.00 0.00 72 994.8
20260901101553 80 50 0.0 0.9 0.00 0.00 0.00 71 994.8
20260901100048 80 75 0.0 1.7 0.00 0.00 0.00 70 994.9
20260901094548 81 83 0.0 1.7 0.00 0.00 0.00 70 995.0
20260901093114 81 50 0.0 1.7 0.00 0.00 0.00 69 995.0
20260901091559 81 65 0.0 1.7 0.00 0.00 0.00 67 994.9
20260901090042 82 67 0.0 1.7 0.00 0.00 0.00 67 994.8
20260901084540 82 45 0.0 0.9 0.00 0.00 0.00 66 994.7
20260901083044 82 53 0.0 0.9 0.00 0.00 0.00 65 994.6
20260901081537 83 40 0.0 0.9 0.00 0.00 0.00 64 994.7
20260901080038 83 93 0.0 0.9 0.00 0.00 0.00 63 994.6
20260901074532 83 86 0.0 1.7 0.00 0.00 0.00 62 994.5
20260901073029 83 43 0.0 1.7 0.00 0.00 0.00 62 994.5
20260901071532 84 45 0.0 1.7 0.00 0.00 0.00 61 994.5